Regional Weather Roundup
Issued by NWS

Current Version | Previous Version | Text Only | Print | Product List | Glossary On
Versions: 1 2 3 4 5 6 7 8 9 10 11 12 13 14 15 16 17 18 19 20 21 22 23 24 25 26 27 28 29 30 31 32 33 34 35 36 37 38 39 40 41 42 43 44 45 46 47 48 49 50
000
ASUS44 KJAN 270910
RWRMS

MISSISSIPPI HOURLY WEATHER ROUNDUP
NATIONAL WEATHER SERVICE JACKSON MS
300 AM CST MON FEB 27 2017

NOTE: "FAIR: INDICATES FEW OR NO CLOUDS BELOW 12,000 FEET WITH NO
SIGNIFICANT WEATHER AND/OR OBSTRUCTIONS TO VISIBILITY.

MSZ001>002-007>008-010>013-018>021-025>028-034>036-271000-
NORTHWEST MISSISSIPPI

CITY           SKY/WX    TMP DP  RH WIND       PRES   REMARKS
BATESVILLE     MIX PCPN  46  44  93 N3        30.11F
CLEVELAND      LGT RAIN  48  48 100 N16G22    30.07R
GREENWOOD      CLOUDY    59  42  53 VRB5      30.02F
GREENVILLE     HVY RAIN  48  47  96 N23       30.07R FOG
OXFORD         RAIN      45  41  87 N6        30.12F
TUNICA         MIX PCPN  45  43  93 N3        30.13R
WINONA         CLOUDY    56  38  50 SE7       30.02F
$$

MSZ003>006-009-014>017-022>024-029>033-037>039-271000-
NORTHEAST MISSISSIPPI

CITY           SKY/WX    TMP DP  RH WIND       PRES   REMARKS
COLUMBUS AFB   CLOUDY    50  39  67 CALM      30.10R
CORINTH        CLOUDY    54  39  58 NW5       30.12F
GOLDN TRIANGLE CLOUDY    52  30  43 SE6       30.06S
STARKVILLE     CLOUDY    48  36  61 CALM      30.09F
TUPELO         CLOUDY    50  35  56 N8        30.10F
$$

MSZ040-058-271000-
CENTRAL MISSISSIPPI

CITY           SKY/WX    TMP DP  RH WIND       PRES   REMARKS
JACKSON INTL   CLOUDY    59  49  69 S13       30.03F
JACKSON HAWKNS CLOUDY    58  49  72 SE13      30.03F
MADISON        PTSUNNY  N/A N/A N/A S5        30.02F
MERIDIAN KEY   CLOUDY    55  45  68 S9        30.07F
MERIDIAN NAS   CLOUDY    55  40  56 VRB3      30.08S
VICKSBURG VKS  CLOUDY    61  52  72 S10       29.98F
$$

MSZ059>079-271000-
SOUTH MISSISSIPPI

CITY           SKY/WX    TMP DP  RH WIND       PRES   REMARKS
BROOKHAVEN     PTSUNNY   61  54  77 SE9       30.05S
HATTIESBURG    CLOUDY    59  52  77 SE12      30.07F
LAUREL         CLOUDY    56  47  73 SE3       30.07F
MCCOMB         CLOUDY    60  54  80 S13       30.04F
NATCHEZ        CLOUDY    61  52  72 SE14      30.01F
PINE BELT      CLOUDY    55  46  71 S8        30.08F
$$

MSZ080>082-271000-
COASTAL MISSISSIPPI

CITY           SKY/WX    TMP DP  RH WIND       PRES   REMARKS
BILOXI         MOCLDY    66  58  76 SE9       30.07S
PASCAGOULA     PTCLDY    52  49  89 CALM      30.10F
GULFPORT       PTCLDY    66  60  81 SE12      30.08S
$$

LAZ007>009-015>016-023>026-271000-
NORTHEAST LOUISIANA

CITY           SKY/WX    TMP DP  RH WIND       PRES   REMARKS
BASTROP        CLOUDY    60  53  79 NW12G21   30.03R THUNDER
TALLULAH/VBURG NOT AVBL
VIDALIA        CLOUDY    60  55  82 S9        30.01F
$$



USA.gov is the U.S. government's official web portal to all federal, state and local government web resources and services.